TimeEST,TemperatureF,Dew PointF,Humidity,Sea Level PressureIn,VisibilityMPH,Wind Direction,Wind SpeedMPH,Gust SpeedMPH,PrecipitationIn,Events,Conditions,WindDirDegrees,DateUTC
6:56 AM,42.8,37.4,81,30.29,10.0,NNE,8.1,-,N/A,,Scattered Clouds,20,2012-12-06 11:56:00
7:56 AM,42.8,37.4,81,30.31,10.0,NNE,9.2,-,N/A,,Overcast,30,2012-12-06 12:56:00
8:56 AM,46.4,37.4,71,30.32,10.0,NE,11.5,-,N/A,,Mostly Cloudy,40,2012-12-06 13:56:00
9:56 AM,46.4,37.4,71,30.33,10.0,NE,13.8,-,N/A,,Clear,50,2012-12-06 14:56:00
10:56 AM,48.2,35.6,62,30.32,10.0,NE,12.7,16.1,N/A,,Clear,50,2012-12-06 15:56:00
11:56 AM,50.0,33.8,54,30.30,10.0,ENE,9.2,-,N/A,,Clear,70,2012-12-06 16:56:00
12:56 PM,51.8,33.8,50,30.27,10.0,NE,8.1,-,N/A,,Clear,50,2012-12-06 17:56:00
1:56 PM,53.6,32.0,44,30.26,10.0,NNE,9.2,-,N/A,,Clear,20,2012-12-06 18:56:00
2:56 PM,53.6,32.0,44,30.25,10.0,ENE,9.2,-,N/A,,Clear,60,2012-12-06 19:56:00
3:56 PM,51.8,32.0,47,30.25,10.0,NE,9.2,-,N/A,,Clear,40,2012-12-06 20:56:00
4:56 PM,50.0,35.6,58,30.25,10.0,NNE,5.8,-,N/A,,Scattered Clouds,30,2012-12-06 21:56:00
5:56 PM,48.2,35.6,62,30.26,10.0,NNE,5.8,-,N/A,,Clear,20,2012-12-06 22:56:00
6:56 PM,48.2,37.4,66,30.27,10.0,NE,10.4,-,N/A,,Overcast,40,2012-12-06 23:56:00
7:56 PM,48.2,37.4,66,30.27,10.0,East,6.9,-,N/A,,Overcast,80,2012-12-07 00:56:00
8:15 PM,47.5,37.2,68,30.27,10.0,ENE,6.9,-,N/A,,Overcast,70,2012-12-07 01:15:00
8:35 PM,47.3,37.4,68,30.27,10.0,ENE,5.8,-,N/A,,Overcast,70,2012-12-07 01:35:00
8:56 PM,46.4,37.4,71,30.26,10.0,ENE,5.8,-,N/A,,Overcast,60,2012-12-07 01:56:00
9:55 PM,47.1,37.6,69,30.25,10.0,East,6.9,-,N/A,,Overcast,80,2012-12-07 02:55:00
10:55 PM,46.0,37.8,73,30.23,10.0,NNE,5.8,-,N/A,,Scattered Clouds,30,2012-12-07 03:55:00
11:15 PM,45.7,37.9,74,30.22,10.0,NNE,5.8,-,N/A,,Scattered Clouds,30,2012-12-07 04:15:00
11:35 PM,45.7,38.1,75,30.22,10.0,NE,4.6,-,N/A,,Mostly Cloudy,50,2012-12-07 04:35:00
11:55 PM,45.9,38.3,75,30.22,10.0,NE,6.9,-,N/A,,Overcast,40,2012-12-07 04:55:00